Redding, CA

8:18 AM PDT on March 29, 2017 (GMT -0700)
Redding Municipal

Weather History for KRDD - May, 2013

Change the Weather History Date:

Wednesday, May 22, 2013

  Actual Average Record
Temperature  
Mean Temperature 60 °F -  
Max Temperature 73 °F 83 °F 100 °F (2001)
Min Temperature 46 °F 56 °F 34 °F (2010)
Degree Days  
Heating Degree Days 5    
Cooling Degree Days 0    
Growing Degree Days 10 (Base 50)    
Moisture  
Dew Point 23 °F    
Average Humidity 26    
Maximum Humidity 42    
Minimum Humidity 10    
Precipitation  
Precipitation 0.00 in 0.06 in 1.09 in (1990)
Month to date precipitation 0.41 1.33  
Year to date precipitation 7.27 19.65  
Since 1 July precipitation 26.43  
Sea Level Pressure  
Sea Level Pressure 29.94 in    
Wind  
Wind Speed 9 mph (NW)    
Max Wind Speed 17 mph    
Max Gust Speed 30 mph    
Visibility 10 miles    
Events      
T = Trace of Precipitation, MM = Missing Value Source: NWS Daily Summary

Daily Weather History Graph

Daily Weather History Graph

Search for Another Location

Airport or City:

Trip Planner

Search our weather history database for the weather conditions in past years. The results will help you decide how hot, cold, wet, or windy it might be!

Date:

Astronomy

May. 22, 2013 Rise Set
Actual Time 5:46 AM PDT 8:25 PM PDT
Civil Twilight 5:14 AM PDT 8:57 PM PDT
Nautical Twilight 4:35 AM PDT 9:37 PM PDT
Astronomical Twilight 3:50 AM PDT 10:22 PM PDT
Moon 5:53 PM PDT (5/22) 3:54 AM PDT (5/22)
Length of Visible Light 15h 42m
Length of Day
14h 39m
Waxing Gibbous, 92% of the Moon is Illuminated
May 22
Waxing Gibbous
May 24
Full
May 31
Last Quarter
Jun 8
New
Jun 16
First Quarter

Hourly Weather History & Observations

Time (PDT) Temp. Windchill Dew Point Humidity Pressure Visibility Wind Dir Wind Speed Gust Speed Precip Events Conditions
12:53 AM 50.0 °F - 24.1 °F 36% 30.02 in 10.0 mi WNW 11.5 mph 19.6 mph N/A   Clear
1:53 AM 48.9 °F - 24.1 °F 38% 30.02 in 10.0 mi WNW 10.4 mph 16.1 mph N/A   Clear
2:53 AM 48.0 °F - 24.1 °F 39% 30.03 in 10.0 mi NW 8.1 mph - N/A   Clear
3:53 AM 46.9 °F - 24.1 °F 41% 30.02 in 10.0 mi WNW 9.2 mph - N/A   Clear
4:53 AM 46.0 °F 43.9 °F 24.1 °F 42% 30.01 in 10.0 mi NW 4.6 mph - N/A   Clear
5:53 AM 46.0 °F 41.4 °F 23.0 °F 40% 30.03 in 10.0 mi WNW 9.2 mph - N/A   Clear
6:53 AM 48.0 °F - 24.1 °F 39% 30.03 in 10.0 mi NW 5.8 mph - N/A   Clear
7:53 AM 52.0 °F - 23.0 °F 32% 30.04 in 10.0 mi NNW 10.4 mph - N/A   Clear
8:53 AM 55.0 °F - 19.9 °F 25% 30.03 in 10.0 mi NNW 12.7 mph - N/A   Clear
9:31 AM 57.2 °F - 19.4 °F 23% 30.02 in 1.8 mi North 11.5 mph 18.4 mph N/A   Haze
9:45 AM 57.2 °F - 19.4 °F 23% 30.02 in 10.0 mi North 11.5 mph - N/A   Clear
9:53 AM 59.0 °F - 21.0 °F 23% 30.01 in 10.0 mi North 12.7 mph - N/A   Clear
10:53 AM 61.0 °F - 21.0 °F 21% 29.99 in 10.0 mi NNW 10.4 mph 18.4 mph N/A   Clear
11:53 AM 63.0 °F - 18.0 °F 18% 29.96 in 10.0 mi North 15.0 mph 21.9 mph N/A   Clear
12:53 PM 66.0 °F - 16.0 °F 15% 29.94 in 10.0 mi North 9.2 mph - N/A   Clear
1:53 PM 69.1 °F - 10.9 °F 11% 29.91 in 10.0 mi North 15.0 mph 29.9 mph N/A   Clear
2:53 PM 68.0 °F - 16.0 °F 14% 29.89 in 10.0 mi Calm Calm - N/A   Clear
3:53 PM 71.1 °F - 19.0 °F 14% 29.86 in 10.0 mi WNW 9.2 mph - N/A   Clear
4:53 PM 73.0 °F - 19.0 °F 13% 29.84 in 10.0 mi North 9.2 mph - N/A   Clear
5:53 PM 71.1 °F - 19.9 °F 14% 29.83 in 10.0 mi West 9.2 mph - N/A   Clear
6:53 PM 71.1 °F - 19.9 °F 14% 29.82 in 10.0 mi Calm Calm - N/A   Clear
7:53 PM 66.9 °F - 28.0 °F 23% 29.82 in 10.0 mi NW 9.2 mph - N/A   Clear
8:53 PM 63.0 °F - 30.9 °F 30% 29.83 in 10.0 mi NW 8.1 mph - N/A   Clear
9:53 PM 61.0 °F - 30.9 °F 32% 29.85 in 10.0 mi West 5.8 mph - N/A   Clear
10:53 PM 60.1 °F - 30.9 °F 33% 29.86 in 10.0 mi WNW 10.4 mph 17.3 mph N/A   Clear
11:53 PM 57.9 °F - 32.0 °F 37% 29.86 in 10.0 mi WNW 9.2 mph - N/A   Clear